CAPE
1665 1238 1001 2000 2181 2284 2182 2311 2412 2454 2608 2745 2538 2419 2775 2766 2534 2448 2370 2222 2061 1845 1786 1770 1639 1543 1702 1609 1495 1489 1474 1418 1567 1689 1798 1618 1299 1219 1171 1077 971 1026 995 553 445 568 429 399 433 522 431 379 398 372 350 154 116 101 112 126 137 198 512 1013 901 1154 1218 1282 1206 1295 1304 1334 1154 928 1036 1432 1460 1509 1384 1308 1099 1470 1408 1457 1403
1882 1619 1214 1796 2077 2246 2249 2275 2284 2368 2536 2479 2388 2323 2402 2506 2339 2384 2302 2173 2052 1914 1860 1790 1709 1679 1620 1567 1391 1392 1317 1490 1646 1665 1489 1367 1193 951 1118 1042 907 1008 872 366 492 441 563 631 431 442 544 459 434 441 454 354 276 77 14 30 120 693 861 1209 1214 1154 1352 1424 1467 1504 1359 1329 1427 1348 1231 1374 1487 1576 1449 1473 1438 1442 1356 1315 1366
1543 1566 1226 1770 2073 2098 2147 2193 2179 2222 2271 2407 2396 2344 2436 2320 2340 2356 2256 2177 2124 2019 1976 1833 1719 1582 1433 1424 1406 1279 1309 1589 1680 1528 1398 1312 932 1008 942 906 1254 1199 574 370 605 678 619 506 635 653 645 630 566 482 460 488 490 252 90 193 516 678 674 833 1056 1183 1162 1613 1664 1415 1169 1129 1044 1209 1273 1401 1438 1456 1353 1337 1280 1174 1084 991 930
1465 1550 990 1892 1957 2008 2087 2113 2098 2174 2223 2254 2308 2317 2138 2178 2215 2180 2221 2166 2044 2009 1947 1866 1753 1544 1456 1361 1363 1273 1283 1548 1652 1513 1401 1326 1170 960 1007 1138 1195 842 476 530 911 796 750 706 682 629 721 740 900 801 537 548 492 393 333 348 470 634 804 662 574 504 647 1529 1733 1430 1485 1710 1296 1113 1158 1108 1337 1282 1234 1283 1109 1034 996 1050 966
1382 1034 1034 1595 1773 1955 1988 2061 2032 2138 2142 2097 2105 2169 2189 2220 2131 2105 2076 2003 1956 1907 1808 1698 1634 1466 1454 1365 1215 1181 1304 1457 1464 1256 1192 1357 1174 1092 1273 1327 874 627 648 1010 889 807 705 761 872 935 990 984 1107 1120 950 575 477 429 355 334 432 528 652 648 493 420 591 536 1143 1188 1240 1496 1418 1322 1303 1421 1345 1205 1144 1101 979 884 638 629 845
1360 1068 1073 879 1388 1690 1901 1944 1970 2003 2051 2075 2110 2159 2168 2165 2129 2093 2064 2054 1964 1832 1670 1584 1442 1441 1246 1177 1151 1169 1324 1237 1178 1135 1332 1687 1690 1620 1388 716 765 807 927 824 972 901 1032 1148 1155 1080 1161 1202 1261 1286 1358 1110 621 436 445 408 400 453 536 576 500 320 360 486 595 916 1181 1103 1165 1322 1362 1427 1416 1319 1216 1100 1105 1032 752 503 502
1304 1112 1081 847 1226 1452 1858 1904 1923 1950 1915 1960 2040 2021 2048 2080 1990 1995 1957 1919 1822 1619 1616 1420 1425 1349 1228 1142 1174 1214 1173 1176 1215 1460 1813 1944 1892 1726 1094 1007 954 802 966 1186 1136 1253 1405 1493 1361 1299 1325 1325 1255 1198 1137 1147 711 503 480 484 400 535 548 405 395 279 331 685 460 567 866 901 1039 1278 1430 1411 1456 1326 1174 1061 895 847 786 484 431
1307 1383 1058 899 1165 1576 1875 1910 1913 1905 1861 1864 1802 1844 1909 1891 1879 1878 1816 1727 1693 1838 1669 1488 1421 1309 1255 1278 1339 1455 1355 1246 1820 2081 2053 2069 1944 1540 1406 940 910 1100 1189 1256 1436 1667 1670 1552 1476 1508 1385 1332 1310 1211 1150 1303 1133 633 463 493 411 375 448 394 255 234 333 595 631 583 574 796 743 961 1153 1251 1250 1208 1294 1140 1054 893 825 657 558
1288 1211 1072 913 1006 1446 1813 1838 1797 1858 1813 1720 1660 1855 1817 1716 1730 1632 1622 1711 1759 1818 1937 1614 1503 1416 1382 1386 1528 1539 1251 1403 1839 1744 1711 1892 1798 1577 1151 1181 1386 1648 1714 1809 1847 1776 1519 1448 1469 1415 1404 1301 1186 1197 1275 1286 1368 725 487 440 477 485 352 182 195 170 329 626 537 503 624 626 749 584 752 800 1135 1206 1100 948 980 726 671 630 560
1330 1385 1111 971 1159 1924 1759 1656 1665 1742 1762 1714 1730 1688 1623 1583 1487 1616 1646 1770 1893 1846 1968 1839 1836 1687 1518 1588 1660 1314 1380 1638 1680 1747 1714 1802 1864 1724 1512 1588 1622 1518 1776 1849 1704 1644 1551 1456 1462 1444 1400 1264 1279 1259 1380 1381 1268 1075 536 519 489 529 462 315 266 320 262 416 600 667 829 619 657 568 658 852 833 1073 924 789 719 787 801 734 615
1434 1319 1082 1032 864 1879 1711 1612 1635 1705 1714 1651 1540 1621 1587 1601 1622 1684 1762 1767 1933 1998 2141 2002 1903 1774 1592 1636 1541 1406 1350 1620 1608 1566 1584 1588 1652 1714 1695 1748 1786 1756 1669 1649 1710 1614 1508 1514 1398 1386 1365 1370 1482 1450 1463 1466 1470 1421 727 652 585 410 332 448 619 472 384 213 362 504 573 749 716 607 763 598 480 464 394 426 454 427 401 523 564
1507 1450 1123 1051 1789 1801 1674 1597 1650 1698 1480 1526 1548 1540 1620 1682 1612 1694 1895 1947 2048 2018 2036 2019 1876 1730 1732 1401 1322 1330 1429 1423 1586 1596 1577 1462 1450 1432 1449 1568 1714 1683 1741 1768 1661 1601 1555 1456 1335 1324 1280 1344 1425 1516 1534 1556 1598 1609 967 790 782 546 386 396 496 510 735 734 830 787 571 410 348 283 246 128 149 160 153 189 180 188 262 390 246
1477 1261 1146 1445 1146 1831 1679 1649 1716 1609 1555 1492 1577 1678 1732 1733 1771 1829 1998 2089 2085 1974 2017 1876 1745 1446 1316 1219 1244 1414 1320 1416 1601 1630 1576 1414 1354 1346 1235 1535 1674 1798 1780 1640 1553 1536 1430 1315 1239 1249 1426 1495 1509 1490 1540 1705 1758 1714 1095 946 714 590 495 461 439 288 424 848 927 662 328 419 425 294 310 485 695 453 341 249 275 238 240 240 117
1617 1251 1128 921 823 1672 1668 1768 1663 1653 1648 1667 1726 1794 1739 1765 1790 1977 2046 2112 2003 1986 1998 1956 1786 1517 1339 1245 1301 1247 1439 1562 1654 1547 1430 1378 1356 1312 1331 1440 1726 1699 1552 1593 1455 1342 1326 1357 1274 1289 1378 1526 1360 1475 1569 1725 1827 1650 1222 1014 773 557 490 1120 273 392 532 705 815 823 827 629 364 366 281 371 362 297 224 79 111 352 260 126 94
1505 1663 1444 845 1165 1340 1916 1804 1729 1690 1661 1763 1780 1784 1828 1896 1961 2019 2066 2184 2158 2106 2009 2050 1984 1585 1330 1359 1396 1518 1604 1708 1686 1512 1454 1367 1319 1282 1413 1586 1668 1598 1529 1452 1388 1292 1311 1468 1400 1243 1312 1346 1428 1548 1586 1656 1608 1527 1215 936 831 698 402 420 376 581 733 995 1108 636 487 373 549 473 333 342 216 192 152 251 128 110 96 231 276
1827 1675 1413 1276 786 1387 1377 1769 1788 1738 1791 1803 1824 1901 1889 1945 2065 2080 2098 2168 2186 2142 2050 2021 1960 1745 1595 1957 1987 1826 1610 1768 1797 1645 1454 1336 1380 1496 1440 1514 1552 1525 1465 1378 1298 1293 1276 1171 1212 1220 1298 1356 1517 1578 1557 1555 1560 1400 1199 1018 793 705 708 1318 645 767 1025 1072 974 922 709 668 1058 416 388 252 191 203 157 229 155 44 44 45 51
1390 1576 1545 1132 950 1046 1151 1446 1513 1864 1684 1750 1916 1901 1905 2008 2083 2106 2149 2109 2163 2216 2202 2092 1857 1730 2049 2091 1929 1798 1738 1709 1693 1670 1526 1492 1570 1516 1500 1577 1553 1522 1436 1295 1198 1200 1095 1073 1112 1154 1204 1419 1562 1614 1511 1535 1449 1373 1313 1075 1004 810 870 1192 794 920 933 925 975 870 772 558 327 250 259 251 234 250 155 140 106 112 144 135 95
1404 1522 1467 1254 1119 863 1436 1126 1438 1352 1857 1978 1919 1938 2010 2072 2082 2133 2117 2051 2101 2115 2114 1959 1913 2064 2052 2008 1965 1817 1793 1775 1771 1742 1579 1579 1691 1657 1584 1504 1485 1474 1283 1224 1142 1117 1102 1019 935 968 1071 1293 1432 1536 1537 1413 1362 1370 1138 1082 856 732 878 989 961 693 772 962 1131 1053 704 468 460 476 384 347 171 140 126 33 104 96 11 200 208
1344 1416 1253 1104 1079 1131 1265 1151 1123 1198 1441 1111 1094 2166 2136 2149 2105 2115 2067 2051 2011 1936 1997 1912 1983 1983 1849 1673 1758 1721 1665 1622 1698 1544 1586 1525 1594 1655 1628 1543 1454 1364 1336 1302 1234 1236 1105 832 713 844 1004 1212 1468 1561 1453 1338 1332 1169 1150 1060 945 688 910 1414 1052 929 1250 1186 1140 874 531 461 566 539 390 396 366 202 305 278 172 219 245 179 97
1350 1459 1338 1125 1101 1034 1042 1138 1021 1362 1400 1323 1315 2152 2307 2164 2176 2087 2038 1992 1942 1760 1567 1619 1658 1632 1494 1517 1627 1618 1549 1554 1492 1395 1573 1335 1502 1166 1477 1519 1346 1293 1181 1143 1099 982 748 678 757 736 890 1086 1238 1462 1546 1436 1218 1243 1105 1118 994 980 1504 1404 1299 1221 1155 1087 881 570 547 519 366 463 458 407 335 288 220 157 138 152 187 204 194
1363 1245 1503 1281 1240 1250 1147 1098 1316 1826 1974 1871 2062 2382 2292 2079 2085 2030 1964 1961 1951 1682 1586 1595 1695 1521 1461 1646 1407 1768 1744 1819 1540 1260 1536 1585 1354 1372 1377 1320 1225 1135 1037 1052 1018 667 666 771 888 893 927 1035 1182 1287 1519 1504 1339 1221 1320 1114 1033 1253 1576 1440 1382 1218 1168 1055 804 367 541 598 497 446 326 336 384 277 179 168 152 115 194 228 224
1749 1633 1592 1435 1382 1348 1201 1175 1640 2193 2125 1860 2035 2005 2066 1979 1657 1777 1522 2088 1926 1903 1934 1673 1457 1278 1521 1699 1306 1435 1513 1421 1669 1386 1734 1634 1466 1236 1265 1034 986 960 975 902 690 644 737 847 785 754 721 872 883 892 1311 1612 1567 1325 1224 1366 1126 1466 1540 1655 1445 1129 747 1023 747 636 759 577 493 439 389 279 236 352 261 222 174 157 102 147 154
1853 1462 1749 1554 1568 1552 1562 1432 2183 2037 2046 1526 1467 2104 1952 1900 1563 1139 1046 1090 1418 1447 1411 1423 1501 1662 1775 1492 1643 1605 1640 1698 1276 1094 1692 996 1392 1078 986 912 933 965 832 651 625 806 820 754 735 752 646 354 796 1061 1096 1318 1594 1401 1407 1167 1698 1512 1786 1700 1428 1299 1026 1010 773 657 568 521 481 405 394 382 350 304 289 180 119 90 82 68 179
1119 1908 861 1589 1740 1871 1695 1737 2046 1821 1669 1436 1344 1378 1770 1638 1277 724 730 1317 1312 1549 1854 1777 1684 1687 1641 1706 1858 2048 1724 1113 874 967 986 931 1079 1166 946 833 692 740 620 499 596 694 726 658 594 307 455 350 684 949 869 1155 1640 1721 1716 1694 1654 1567 1609 1644 1336 1401 1178 874 898 729 578 581 550 448 342 288 364 304 315 288 209 182 195 141 127
1587 1439 990 1559 2143 1826 1656 957 1794 2169 1824 1446 1637 1429 1818 1674 1171 593 1327 1678 1611 1600 1471 1605 1568 1855 1972 1914 1401 1209 788 772 983 618 506 634 680 813 799 525 536 670 690 573 351 130 419 255 307 463 388 357 431 497 754 543 1148 1472 1973 1782 1428 1421 1374 1418 1393 1469 1211 992 1012 894 740 795 691 610 624 537 369 294 286 235 187 200 133 74 80
910 1157 1040 1256 1307 1762 1315 1430 1241 2182 2309 2146 2009 1764 2009 1902 1303 1181 1872 1564 1426 1472 1502 1594 1643 1729 1553 1439 983 815 683 508 518 392 517 451 524 483 479 356 342 368 614 622 502 299 522 594 636 574 524 398 482 627 504 742 875 1263 1535 1665 1426 1403 1226 1386 1349 1493 1429 1304 1164 1162 1013 998 1016 1033 1027 712 344 255 231 246 170 119 64 26 18
1020 996 1014 1013 1222 1495 1562 1588 1577 1498 1131 1410 2200 1672 2287 1580 1006 1545 2095 1942 1824 1686 1550 1498 1509 1575 1622 1451 1506 1474 920 729 687 722 799 748 751 753 712 462 528 496 664 805 710 686 613 594 593 709 591 453 374 444 593 755 781 1056 1398 1602 1509 1322 1359 1269 1409 1475 1222 854 1168 1406 1486 1206 1184 1136 896 458 274 275 368 294 229 166 120 166 103
760 857 824 1075 1148 1247 1442 1796 1747 1825 1267 1098 1640 2266 1677 1179 1132 1232 1703 1616 1520 1570 1687 1657 1701 1795 1990 2070 2164 1801 1160 754 774 785 724 897 891 934 745 781 776 796 892 714 636 674 696 905 957 737 538 434 476 464 372 456 666 906 1307 1394 1463 1467 1460 1378 1399 1540 1079 1081 935 1425 1460 1373 1197 896 724 536 400 318 277 251 188 184 195 58 56
499 622 883 962 1230 1438 1724 1824 1763 1647 1774 1616 2439 1871 1692 1588 1165 1629 1773 1164 1420 1578 1858 2028 1997 1934 2155 2129 2124 1699 1306 1034 860 832 834 999 1033 858 650 659 658 522 730 955 756 757 748 750 837 806 740 813 952 626 558 493 503 755 1253 1407 1466 1528 1601 1639 1643 1729 1249 1662 959 1415 1333 1433 1350 1079 743 562 490 383 310 278 204 189 210 147 66
465 651 983 1153 1712 2017 1720 1563 1850 1734 1828 2124 2076 1972 1674 1502 1110 1254 1664 1570 1469 1755 1387 1536 2327 2192 2055 1681 1965 2190 1513 1269 1036 792 716 726 788 1076 1092 958 954 909 950 822 1122 1128 809 865 958 1109 960 968 956 813 715 528 495 796 1042 1324 1396 1455 1610 1615 1702 1629 1738 1583 888 1710 1538 1492 1293 1146 1016 747 756 664 426 261 250 232 175 90 58
422 660 889 1398 1370 1711 1872 1628 2017 1773 1520 1423 1384 1860 2020 1784 1754 1351 1721 1778 1623 1568 1220 1656 1594 1785 1793 1927 959 1621 1756 1365 1068 865 730 578 796 979 975 1001 1044 1044 1022 965 1161 1344 1265 1082 1484 1260 1173 1184 1274 1100 1248 1028 887 720 1014 1145 1312 1500 1542 1466 1526 1557 1561 1717 865 1000 1252 1180 1117 1170 1090 1079 803 635 652 372 208 187 193 210 170
506 421 882 1567 1213 1406 1759 1400 1614 1075 979 973 1085 1174 1707 2129 1612 1029 1477 1144 1385 1397 1332 1677 1700 1620 1713 1168 1741 1824 1823 1697 1287 1094 997 736 918 835 836 834 860 843 980 1040 1139 1151 1217 1214 1554 1641 1575 1446 1321 1404 1520 1590 1464 1103 919 1217 1437 1403 1403 1428 1353 1401 1299 1117 609 1367 1138 853 661 928 1053 1129 782 694 711 550 268 267 270 234 156
868 599 1189 1742 1442 1553 1853 1310 1024 1006 831 889 1001 996 847 1001 1375 1272 928 1074 1224 1282 1318 1594 1577 1634 856 2024 1697 1686 1574 1662 1516 1188 996 882 946 975 959 791 786 874 920 1172 1297 1373 1118 1148 1286 1289 1267 1455 1414 1340 1344 1413 1496 1551 1651 1409 1390 992 1041 1163 1207 1372 1331 1145 572 652 734 1112 933 606 949 1134 871 830 796 704 628 519 355 231 190
1126 1205 1436 1841 1743 1785 1669 1287 943 916 886 810 779 903 657 707 1408 1021 1214 1088 1004 1158 1517 1386 1688 1759 1737 1841 1919 1710 1576 1596 1398 971 872 981 1050 973 888 811 1004 808 898 1095 1124 1057 1015 1046 1040 1281 1163 1223 1264 1396 1290 1214 1170 1390 1584 1583 1249 1672 1366 973 1522 1175 696 688 1132 799 1172 1403 1316 1177 960 1040 1146 1003 892 661 622 563 393 358 351
1122 1461 1353 1616 1794 1795 1457 1133 1063 938 929 764 680 818 737 688 835 790 905 723 1004 1133 1639 1270 1731 1394 940 1681 1850 1739 1583 1640 1345 1137 1105 1064 1085 1254 984 1025 1133 1224 1088 1091 1231 1123 923 1035 989 1047 1010 1118 1218 1364 1360 1354 1384 1170 1298 1632 1658 1466 1576 1505 1188 675 854 1191 1623 1280 1422 1217 1347 1247 1006 981 1186 1046 912 818 661 614 501 386 405
1214 1176 1628 1940 1941 1576 1035 1110 936 872 746 660 554 569 657 750 764 735 1149 746 1013 1026 881 1323 829 685 746 1184 1557 1613 1596 1559 1496 1546 1363 1417 1425 1531 1427 1179 1086 1070 1116 1143 1165 1134 1072 1002 897 896 774 906 1002 1050 1044 1122 1091 1060 1221 1312 1271 1253 1319 1249 706 858 910 1102 1367 1565 1507 1378 1391 1296 1140 1278 1358 905 838 992 965 613 552 520 447
1629 1430 1633 2045 1918 1437 1125 1004 933 886 736 629 563 624 598 629 660 732 701 1445 1282 942 709 1085 670 832 820 1294 1409 1514 1647 1587 1595 1757 1631 1461 1445 1540 1524 1369 1266 1201 1188 1180 1038 1124 1132 906 826 862 970 961 903 1088 1077 987 914 1118 1184 1234 1200 1104 1226 706 512 669 896 1131 1370 1344 1478 1495 1266 1039 1421 1228 1439 906 1016 1141 867 827 720 602 416
1640 1976 2122 2078 1761 1347 1267 951 799 787 692 601 588 607 634 578 548 468 1039 1264 1368 672 802 868 1060 1259 1284 1366 1483 1510 1622 1621 1403 1303 1647 1583 1686 1698 1617 1300 1031 1003 1207 1281 1025 1058 1036 842 717 748 909 1110 1026 937 873 981 892 886 1012 1007 1181 1147 1050 610 710 536 1277 1177 1192 1443 1504 1554 1482 1430 1406 1409 1382 1247 935 1020 881 708 827 810 479
1611 1564 1876 2138 1868 1539 1353 1061 685 989 566 523 602 602 631 513 476 446 1058 1274 1020 1046 1087 507 676 1208 1213 1178 1386 1663 1405 864 1055 1492 1864 1769 1765 1674 1386 1153 1029 1002 1109 1110 1207 1228 1350 971 732 746 699 709 804 776 1135 951 844 831 861 874 981 1102 1106 870 944 1267 1137 1265 1156 1153 1087 1432 1450 1580 1503 1502 1303 812 561 878 520 970 636 613 699
1477 1713 1815 2086 1869 1542 1423 1163 912 815 723 630 477 601 933 1098 834 941 793 1026 1251 994 1150 1010 1321 1286 1182 856 918 1025 1055 1027 1362 1940 2034 1836 1682 1506 1309 1262 1252 1392 1277 1146 1228 1301 1421 1397 1000 600 607 473 509 682 872 871 902 954 938 1095 1162 1191 1251 1082 1060 1023 939 1246 1328 1028 1125 1202 1308 1351 1400 1349 1192 1068 898 664 520 490 688 911 861
1592 1685 1791 1760 1626 1336 1370 1187 908 852 715 632 438 784 571 732 893 692 454 547 499 1142 1137 1198 1221 1327 1422 966 847 912 1150 1885 1887 1928 1917 1597 1616 1692 1674 1646 1496 1557 1708 1520 1512 1487 1478 1376 1202 754 622 595 492 572 750 851 918 977 975 1030 1059 1098 1136 1161 1108 952 782 679 837 1123 1134 964 939 983 1092 1429 1102 959 1110 926 852 894 455 787 805
1619 1672 1665 1769 1769 1311 1284 1287 1104 861 716 569 471 726 941 546 430 321 393 552 759 846 1109 1319 1333 1408 1513 1636 1810 1891 1930 1934 1766 1729 1673 1658 1561 1562 1645 1710 1600 1444 1476 1509 1542 1435 1439 1298 1215 1103 879 606 797 746 710 1045 908 919 878 929 972 890 886 903 786 731 858 624 633 679 768 808 814 944 810 702 721 680 652 913 837 829 754 921 681
1864 1766 1682 1713 1588 1672 1384 1259 1082 922 795 700 999 1345 1178 1349 920 626 796 609 968 1062 1157 1312 1498 1622 1897 1857 1983 2004 1822 1607 1406 1329 1831 1520 1569 1580 1550 1626 1418 1376 1432 1452 1501 1556 1501 1462 1382 1220 925 737 927 1008 1103 971 625 937 1119 900 827 692 678 761 581 646 670 648 651 683 674 825 779 762 830 731 707 935 620 721 695 905 975 928 846
1777 1598 1805 1825 1734 1322 1301 1346 1182 976 784 686 641 778 990 1178 420 364 974 1050 1128 1213 1314 1437 1644 1664 1777 1863 1697 1679 1559 1624 1587 1423 1440 1578 1652 1607 1485 1438 1368 1393 1397 1422 1492 1363 1415 1489 1442 1249 1098 890 737 837 1162 1173 835 908 770 723 860 634 288 194 292 723 820 814 535 678 808 787 831 819 800 724 734 846 785 813 873 875 979 966 920
1794 1672 1768 1892 1857 1773 1551 1205 1174 953 865 732 671 639 531 395 663 778 906 937 1010 1165 1429 1504 1623 1583 1687 1698 1559 1478 1478 1408 1416 1176 931 1104 1355 1566 1624 1535 1450 1501 1318 1186 1243 1338 1295 1316 1336 1340 1265 1131 847 905 906 1036 1167 955 870 698 717 356 592 434 261 186 644 643 538 728 800 725 823 793 846 902 966 891 847 855 819 904 929 980 868
1951 1623 1792 1767 1744 1648 1590 1248 1196 1127 908 533 560 743 582 528 559 656 659 744 750 1387 1318 1068 1430 1481 1467 1598 1525 1496 1425 1076 1002 1001 801 846 1096 1554 1608 1549 1615 1539 1293 1106 1171 1312 1360 1201 1245 1430 1343 1154 1021 878 1064 991 1188 1105 1368 1141 1438 567 834 674 515 323 509 724 562 791 742 752 705 705 851 950 867 707 705 921 786 613 479 489 426
1878 1691 1817 1716 1702 1607 1280 1288 1343 1122 810 742 710 699 653 666 790 748 869 905 980 1290 971 1323 1338 1387 1580 1578 1423 1440 1108 1144 1061 928 990 993 1041 1168 1478 1456 1432 1551 1272 1294 1403 1548 1403 1317 1208 1298 1113 1016 1043 853 884 922 1046 1245 1108 1384 1515 1420 909 700 460 259 368 458 642 824 704 593 642 727 802 829 808 747 482 381 244 219 184 252 193
1795 1643 1679 1568 1719 1688 1292 1396 1268 1121 857 738 772 724 754 768 864 1033 848 1666 994 1499 1580 1616 1614 1556 1633 1422 1251 1185 1156 1104 999 908 936 939 953 1038 1326 1343 1514 1481 1388 1560 1703 1590 1494 1462 1352 1203 1094 1049 902 836 684 696 891 970 1002 1084 1350 1404 1184 1024 661 479 540 600 539 485 605 584 645 657 614 490 290 233 157 257 174 252 280 266 465
1755 1723 1472 1643 1813 1537 1357 1291 1173 1043 945 759 788 819 770 781 844 1563 1611 1788 1662 1469 1266 1284 1395 1316 1331 1155 1057 953 1046 1047 897 1035 964 848 875 854 839 818 849 685 641 758 1668 1660 1711 1676 1528 1451 1385 1108 1096 902 890 835 881 833 990 1009 669 728 982 1257 1124 913 740 648 599 541 562 566 299 102 135 156 138 97 53 69 48 83 119 182 264
1244 1669 1675 1510 1560 1277 1141 1191 1123 1060 1062 914 1141 947 868 1415 1020 1842 1865 1843 1455 1207 1213 1341 1395 1174 1142 1102 1030 941 928 1021 1036 893 843 674 667 640 638 607 740 528 346 228 267 399 541 622 878 1396 1523 1439 1326 1063 1125 842 1046 1018 912 799 620 646 686 879 1058 805 771 749 771 608 436 652 310 66 106 96 146 134 112 104 118 75 130 137 154
1702 1714 1522 1487 1403 1295 1073 1047 1100 1087 1287 1102 1121 1426 1454 1019 1668 1913 1842 1465 1210 1129 1192 1208 1117 952 1043 972 925 818 678 763 912 848 816 633 785 718 559 498 450 462 304 297 310 227 277 349 451 644 1014 1436 1310 1497 1049 620 688 593 856 829 994 461 475 651 830 804 866 848 765 683 616 502 230 90 69 58 94 136 226 216 157 153 132 122 201
Wind_Speed
26 32 32 31 27 28 30 29 25 24 23 25 31 33 32 34 36 38 38 37 37 38 38 38 39 38 36 35 34 31 29 27 25 25 25 26 27 27 27 27 28 28 28 28 27 27 26 25 23 22 21 20 19 19 18 17 14 13 13 12 9 8 10 10 12 13 13 14 15 16 16 16 18 17 16 16 16 15 14 14 11 7 8 10 11
29 31 30 30 28 28 28 28 26 25 24 28 32 34 36 37 39 39 40 39 38 38 39 38 37 36 35 34 34 31 29 26 25 24 24 25 26 27 27 27 28 28 29 28 27 26 26 25 24 23 22 20 19 18 17 16 16 nan nan nan 10 8 8 10 11 11 12 13 14 15 15 15 15 15 17 18 18 19 18 17 14 10 8 12 12
30 31 30 31 31 30 31 29 28 28 28 29 32 34 36 38 39 40 40 39 38 38 38 37 36 36 36 35 33 31 28 25 24 24 25 25 27 27 28 27 28 30 30 29 27 27 25 25 24 23 22 21 20 17 17 16 15 14 nan 12 9 8 8 9 9 8 11 13 15 16 16 14 15 15 16 18 19 20 21 19 17 14 11 13 11
31 30 31 33 33 31 31 31 30 30 29 30 33 36 38 38 39 40 40 39 37 37 37 37 36 36 35 34 32 30 29 26 24 25 24 25 28 28 27 28 29 30 28 29 28 27 25 24 24 22 20 19 18 18 16 16 15 13 12 11 9 7 7 8 7 6 6 13 14 13 9 11 12 13 14 16 19 21 20 18 18 18 16 14 13
30 31 32 32 33 31 30 31 32 32 31 32 35 37 38 38 39 40 41 40 37 37 38 37 36 36 34 34 32 32 30 27 25 26 24 24 26 28 28 28 28 29 29 28 27 26 24 23 23 21 20 19 18 17 15 15 14 13 13 11 9 8 7 7 6 3 1 3 8 8 10 11 10 12 12 16 18 18 17 17 17 16 15 15 14
29 31 31 31 31 31 30 32 33 33 33 34 36 37 38 38 40 41 41 40 38 37 38 37 36 35 35 34 33 32 31 29 27 26 25 23 23 26 28 28 29 29 28 28 27 25 23 23 23 21 20 19 18 17 15 13 13 13 11 10 9 8 8 7 4 1 3 7 13 6 7 8 10 9 13 14 16 15 16 16 15 14 14 15 14
31 30 30 29 28 30 29 33 34 34 34 35 36 37 38 39 41 41 42 41 39 38 37 37 36 35 35 34 33 32 32 29 28 26 25 24 25 26 28 29 29 27 26 26 26 24 22 22 22 20 19 18 17 15 14 13 12 12 11 10 9 8 8 7 2 3 7 8 5 7 6 7 9 8 12 13 13 13 14 15 14 14 14 14 14
29 28 28 27 26 30 30 33 34 34 34 35 37 38 38 40 41 42 42 43 40 36 37 36 36 36 35 34 33 31 31 30 27 26 25 25 25 25 26 28 27 26 25 25 25 24 21 21 20 19 18 17 15 14 14 13 12 11 12 11 10 9 8 6 3 3 12 1 2 5 6 7 7 7 10 11 11 11 13 15 14 14 15 15 12
29 29 28 27 28 33 31 33 33 34 35 35 36 37 39 41 42 43 43 42 38 37 36 36 36 35 34 34 34 32 31 31 28 27 25 23 26 26 26 25 23 22 20 21 23 22 20 19 19 19 17 15 15 14 13 12 13 13 12 12 11 9 8 8 6 9 5 5 5 4 5 6 7 7 8 9 12 13 11 13 16 16 16 15 15
30 30 28 27 30 32 32 33 33 33 34 35 37 39 39 41 43 42 42 39 35 35 35 35 35 35 34 35 34 32 33 32 29 27 26 25 24 24 25 23 22 23 22 23 24 21 19 18 17 17 17 14 12 12 11 11 12 14 14 13 11 9 7 6 9 9 5 5 6 7 8 7 8 8 10 11 11 12 15 18 17 16 14 16 17
33 30 29 30 35 33 33 32 32 33 34 36 39 40 40 40 41 40 37 35 33 33 32 33 34 34 34 34 32 33 34 33 30 29 27 27 26 24 23 23 21 21 21 22 22 21 19 17 16 16 14 11 9 9 10 11 13 14 15 14 12 10 9 11 15 6 6 9 9 8 9 9 8 9 11 12 12 13 13 14 14 15 16 17 17
34 33 32 34 38 34 34 33 32 34 38 39 40 39 38 38 38 35 33 31 31 31 31 30 31 32 34 35 35 34 34 34 32 31 30 29 28 26 25 23 22 22 20 21 21 20 19 17 16 14 12 10 9 9 10 12 14 16 16 15 14 11 9 9 8 7 8 9 8 7 10 10 11 11 13 12 12 12 12 13 14 13 15 16 16
36 35 36 37 36 36 34 33 34 36 37 39 39 38 36 35 32 29 29 29 28 30 31 31 32 33 34 33 34 34 34 34 33 31 31 29 29 28 26 24 21 21 21 21 22 20 19 17 15 13 11 10 9 9 11 14 16 17 17 15 14 12 10 8 4 7 8 8 8 9 11 10 11 13 14 16 18 17 16 15 16 15 15 15 16
37 37 37 37 35 36 34 34 34 35 36 37 36 35 33 30 28 27 27 28 30 31 32 33 34 34 33 32 33 33 33 34 33 32 31 30 29 28 26 24 22 22 21 20 20 20 19 17 15 13 11 11 11 12 13 16 18 18 18 16 14 11 9 10 8 8 8 9 8 10 10 10 11 10 13 14 14 16 16 nan 16 19 18 17 nan
38 38 37 37 37 35 36 34 34 34 35 35 34 32 30 26 25 26 27 28 29 30 30 32 32 33 33 32 34 33 33 32 32 32 31 30 29 27 26 24 23 21 20 18 18 19 19 18 16 14 13 11 12 14 15 18 20 19 18 17 15 13 13 7 7 10 9 8 8 11 12 11 12 13 15 15 15 15 16 18 17 17 nan 19 18
38 39 38 38 38 36 35 36 34 34 35 34 33 30 27 26 26 27 27 29 29 29 29 30 31 32 31 32 32 31 31 30 30 30 30 30 29 27 26 24 22 21 19 16 17 18 18 17 16 15 14 13 14 15 16 17 19 19 19 17 15 11 9 5 10 9 8 8 10 11 13 13 13 15 15 15 16 16 17 18 17 nan nan nan nan
37 38 39 39 39 37 36 34 35 35 35 33 31 29 27 27 27 27 28 29 29 28 28 29 30 30 30 30 30 29 29 29 30 30 29 29 29 27 25 23 21 20 16 16 16 17 17 17 18 17 15 14 15 17 17 17 18 18 18 16 13 10 4 3 12 10 9 10 10 11 12 13 16 15 14 16 15 16 17 18 18 19 19 19 nan
37 38 40 41 39 38 37 35 35 33 34 31 30 29 29 29 28 29 30 28 27 28 28 28 28 28 28 27 28 28 28 29 30 29 28 27 27 27 26 23 20 18 15 15 16 16 17 19 19 21 19 16 14 16 18 18 18 18 17 15 12 10 6 4 14 13 12 11 13 14 14 16 15 16 17 17 16 16 16 nan 18 nan nan 20 20
38 39 41 41 40 38 36 34 33 32 31 27 26 29 30 30 29 30 29 28 27 28 28 27 27 27 27 26 27 28 28 29 29 29 29 26 27 26 24 23 20 17 14 16 16 15 17 20 20 19 21 22 18 16 17 19 18 18 18 16 15 11 8 7 16 15 14 13 14 15 15 15 14 19 19 19 19 17 17 17 18 19 20 20 nan
38 40 41 40 39 38 35 34 32 30 28 27 28 29 30 30 30 30 30 28 28 28 28 27 27 26 26 26 25 26 26 26 28 27 28 27 24 23 24 21 20 17 15 16 15 15 18 20 20 16 18 23 21 17 17 19 20 19 18 18 16 14 12 15 15 16 16 16 17 17 17 15 18 20 21 20 19 17 16 17 17 19 19 19 19
38 39 38 37 38 37 36 32 32 32 29 28 27 28 29 30 30 31 30 28 28 28 28 28 26 26 25 25 24 22 22 22 23 24 27 24 25 23 24 21 20 18 17 15 14 15 16 18 18 17 16 19 20 20 18 19 21 20 20 18 18 14 17 16 17 17 16 18 18 19 18 19 21 21 20 21 20 19 17 17 17 18 19 19 20
38 38 37 37 36 34 33 33 33 31 27 25 25 27 26 26 28 27 26 27 26 26 25 24 23 24 25 23 21 19 19 20 20 23 21 23 23 22 22 20 18 18 17 14 14 14 15 16 18 19 15 17 23 20 18 19 20 21 20 19 16 17 18 18 17 17 18 20 19 19 18 21 21 21 21 21 21 21 20 18 18 18 18 18 19
38 40 38 37 34 32 30 32 30 27 23 25 25 27 26 26 26 25 24 25 25 23 23 23 22 23 21 19 19 18 17 19 19 20 21 22 22 20 20 19 18 17 15 14 14 15 16 16 16 17 16 16 17 18 18 18 19 21 20 17 16 19 20 19 20 18 18 21 20 21 22 21 23 22 21 22 22 22 21 20 19 nan nan nan 17
31 36 37 34 33 29 27 28 24 22 24 26 28 24 26 26 24 24 23 23 23 22 22 21 21 21 19 18 16 16 16 17 22 28 25 21 21 20 20 19 17 16 16 14 15 15 19 17 15 16 14 14 16 18 18 17 19 19 18 17 18 21 21 21 22 21 19 21 21 21 21 22 23 23 23 22 22 22 23 22 21 20 17 17 16
30 31 31 30 28 25 24 24 21 22 26 27 28 25 26 25 23 23 24 23 23 22 21 20 19 19 19 16 16 14 15 17 19 19 17 17 16 16 14 12 11 13 10 12 12 14 15 18 16 12 13 13 15 18 17 17 19 18 18 17 19 19 20 21 24 23 22 20 21 20 21 22 23 24 23 23 22 22 23 23 23 22 19 nan nan
36 30 30 30 24 22 22 21 22 21 29 29 26 26 24 24 23 24 24 23 22 21 19 18 18 18 16 16 16 15 16 17 17 17 16 16 15 14 12 12 12 13 9 12 13 13 11 12 11 13 14 15 14 14 15 16 17 17 18 18 19 19 19 22 24 24 24 22 21 20 20 22 23 24 25 24 23 22 23 24 23 23 nan nan nan
31 36 29 25 23 21 20 18 21 23 27 26 23 22 22 23 24 24 24 23 21 19 17 17 18 17 16 17 16 16 16 17 17 16 15 15 14 13 13 14 13 13 12 12 14 12 10 11 12 14 15 15 12 13 15 14 14 17 18 18 18 18 19 22 23 24 25 23 23 20 21 25 23 24 24 23 23 22 23 23 23 23 22 21 21
33 39 27 22 22 17 20 20 23 25 26 22 21 22 24 24 24 25 22 22 19 17 17 17 18 16 16 16 16 16 16 16 16 15 14 14 14 13 13 13 14 14 14 14 15 14 12 11 12 14 14 12 12 12 15 16 16 16 19 18 18 18 18 20 21 23 24 23 23 24 24 24 22 22 22 23 22 22 22 23 23 23 23 nan nan
35 36 27 22 24 23 22 22 22 22 24 22 23 24 25 24 23 22 22 21 16 16 16 17 16 15 14 16 16 15 15 16 15 15 14 14 14 13 13 13 14 15 16 16 16 15 13 12 11 11 10 11 12 13 15 16 16 16 17 18 16 18 17 18 20 21 23 19 22 24 24 23 21 22 22 22 22 21 22 22 23 23 24 22 nan
37 25 27 26 27 28 24 22 22 23 25 25 26 26 24 23 22 21 23 20 18 17 17 16 15 15 15 15 16 15 16 15 16 15 15 14 14 13 13 14 14 15 16 18 16 15 14 11 10 10 11 10 12 14 14 17 15 17 16 16 16 15 16 16 18 18 19 19 20 22 21 21 22 21 20 20 20 20 21 22 23 23 22 nan nan
53 36 22 26 24 26 24 24 25 25 26 28 27 26 24 23 21 21 22 21 20 19 17 16 15 15 15 16 17 16 16 16 16 15 15 14 14 13 14 14 14 15 16 17 17 15 13 12 10 10 10 11 13 15 12 15 15 15 15 14 14 14 14 15 16 16 16 17 21 19 19 20 19 20 18 17 18 20 20 21 22 22 21 21 20
47 44 23 16 17 19 20 21 24 26 27 26 24 24 25 23 21 21 21 22 20 19 17 16 15 15 15 16 17 18 17 17 16 15 15 14 14 14 14 14 14 14 15 16 16 14 12 13 13 12 12 12 13 13 14 13 13 13 13 14 13 12 14 13 14 14 14 20 19 17 18 18 17 15 18 17 19 18 20 21 20 19 20 20 20
34 39 20 12 17 17 17 18 23 26 29 27 25 24 24 21 20 20 21 20 17 18 17 16 14 14 14 17 18 18 18 17 16 15 15 15 14 14 13 13 14 15 17 16 15 13 13 13 13 12 11 12 12 13 13 14 13 12 10 13 11 11 13 12 13 13 14 20 19 15 16 16 17 16 13 17 18 18 19 19 19 18 18 20 20
27 23 24 22 23 17 15 16 18 23 23 22 25 26 24 21 20 21 20 18 16 16 17 14 13 13 14 17 18 19 18 16 15 15 16 16 14 13 13 13 15 16 17 16 14 13 13 13 13 11 12 11 12 12 13 13 13 12 11 10 9 9 9 10 12 15 16 16 16 16 16 15 14 14 17 17 16 17 17 19 18 18 18 18 17
33 34 32 34 31 22 15 16 18 17 18 23 26 27 24 20 20 20 16 14 15 14 16 14 13 13 15 15 17 18 17 15 15 17 17 16 14 13 13 14 16 17 16 15 14 13 12 12 11 11 11 11 12 13 13 14 14 12 11 9 8 8 7 8 13 14 13 15 14 14 14 14 14 12 15 16 16 16 16 16 16 16 16 15 15
34 32 32 36 36 27 21 18 20 19 18 17 19 23 22 18 17 15 14 13 14 13 13 13 12 11 12 17 17 16 16 16 16 17 17 15 14 14 14 16 18 17 17 16 12 12 13 12 12 10 10 11 12 13 14 14 14 12 10 9 8 7 8 9 13 9 12 11 11 13 13 13 12 12 11 14 13 13 12 13 13 14 13 13 13
26 30 28 31 33 32 28 25 25 22 19 15 14 14 13 11 13 12 13 14 14 13 10 11 11 13 15 18 18 16 16 17 17 17 15 15 14 14 17 18 18 18 17 15 12 12 13 11 11 11 10 10 13 14 14 13 13 11 10 9 9 7 6 9 7 10 9 8 9 11 12 12 11 11 10 11 11 10 10 9 11 10 9 11 13
18 23 24 25 26 24 23 24 23 20 18 16 13 8 4 7 11 10 12 12 11 10 11 10 12 15 15 16 16 16 15 16 15 14 15 14 16 16 18 18 17 17 16 13 13 13 12 11 12 11 11 10 13 14 13 13 12 11 10 9 8 8 7 9 6 10 8 8 9 8 8 8 8 8 9 9 9 7 5 7 8 7 6 9 11
13 15 19 23 19 15 17 20 18 16 18 17 15 9 3 8 10 11 10 10 8 10 11 11 11 13 14 14 15 14 14 14 10 14 16 16 18 18 17 16 15 15 15 14 14 13 12 12 12 13 12 13 13 14 14 14 13 12 11 10 9 9 8 9 8 9 8 8 8 8 8 7 7 8 8 7 8 8 8 4 5 5 7 8 10
12 10 13 15 15 12 11 12 12 13 17 16 14 10 8 10 11 12 12 9 10 11 10 10 13 13 10 14 13 12 12 15 15 19 18 18 18 17 16 15 14 14 14 14 13 12 12 12 13 14 15 16 14 15 15 15 15 14 13 12 11 10 9 9 9 8 8 7 7 6 8 8 8 9 8 8 7 7 7 12 9 8 8 12 11
14 10 10 13 13 9 8 8 10 13 14 13 13 12 12 11 10 13 9 9 11 10 11 12 13 13 11 14 14 14 18 20 21 20 19 19 18 18 16 15 13 14 14 14 12 13 13 13 14 14 14 16 15 14 15 14 15 14 13 13 12 11 10 10 9 8 8 8 7 7 8 7 8 8 10 8 6 9 4 6 9 8 11 12 13
12 10 7 10 12 10 8 8 10 11 13 12 13 14 11 8 8 11 7 9 10 10 11 14 13 15 13 14 17 20 22 21 20 19 19 18 18 18 17 15 14 13 13 14 13 14 13 14 14 14 13 15 16 15 15 12 12 12 13 13 12 11 9 9 8 11 9 11 9 10 6 7 8 8 10 11 5 10 8 8 8 7 8 12 14
8 9 8 7 11 12 11 11 13 13 13 11 14 13 10 9 10 11 10 11 11 12 13 14 14 15 15 16 17 19 20 20 20 19 17 17 18 17 16 15 12 14 13 13 13 13 13 13 12 12 14 15 17 15 13 9 11 13 12 11 11 11 9 8 10 11 10 11 13 13 11 9 9 9 9 9 10 11 10 10 10 10 10 8 9
7 7 8 8 7 8 11 16 14 12 12 14 15 14 11 13 16 12 13 14 15 15 15 15 15 15 16 17 18 19 20 19 19 17 16 17 17 17 16 14 12 13 12 12 13 12 13 12 12 12 12 15 15 16 13 12 11 13 11 8 11 5 13 10 12 13 12 14 13 14 13 11 11 11 10 9 11 11 11 12 10 13 10 10 10
8 5 7 10 10 10 11 17 17 15 15 17 16 15 14 15 13 16 17 17 17 16 15 15 15 16 17 17 18 19 19 18 18 16 16 16 16 16 15 13 13 13 12 12 12 12 12 11 12 12 12 13 16 16 15 12 12 12 11 11 11 7 10 16 15 15 12 12 14 15 14 13 12 12 11 12 11 11 12 12 11 12 12 11 12
10 9 10 12 13 16 16 17 18 13 16 19 17 17 15 14 15 17 16 15 15 15 13 14 15 16 17 18 19 18 16 16 17 16 17 17 16 15 13 13 14 14 13 13 13 13 11 10 12 11 13 14 15 16 15 13 12 12 13 14 13 12 11 15 11 15 13 17 17 16 15 16 13 12 14 14 13 13 12 12 12 13 13 13 13
13 14 15 17 17 20 20 19 18 17 18 22 20 18 15 14 15 15 15 13 14 13 12 14 16 17 18 18 17 16 15 15 15 16 17 16 15 15 14 14 14 14 14 13 13 12 12 11 12 11 12 14 14 14 14 15 13 13 12 13 13 10 12 13 12 17 15 15 16 17 17 16 15 14 15 16 16 16 15 14 15 14 14 14 14
19 19 20 20 19 21 24 23 23 22 23 26 24 17 13 13 13 15 13 13 14 13 13 13 16 18 18 17 17 17 16 16 16 16 16 16 16 16 16 16 16 15 15 14 13 12 12 12 12 12 13 14 15 12 13 15 12 13 12 12 13 13 13 10 12 15 14 17 17 17 18 17 16 17 16 17 18 17 17 15 16 15 15 15 15
22 21 22 23 24 25 27 28 26 26 27 24 20 17 13 13 14 13 15 14 15 15 14 15 17 18 18 18 18 19 20 19 18 18 17 18 18 18 18 18 18 17 15 15 14 13 13 14 13 13 13 14 13 14 13 14 11 14 14 12 11 13 14 12 11 10 16 17 19 17 18 18 18 18 17 18 18 nan nan nan nan nan 16 17 16
20 20 23 24 25 26 28 25 26 28 26 24 21 19 15 17 15 17 15 15 15 15 15 17 17 18 19 20 21 21 22 22 21 20 20 20 20 21 20 19 19 17 14 16 15 15 14 14 14 14 14 13 13 13 13 15 10 14 11 13 12 15 12 15 14 14 16 15 16 18 18 18 18 nan 19 nan 19 19 20 20 20 nan 18 18 18
19 21 23 24 24 25 26 25 27 28 26 25 22 20 19 18 18 17 15 16 15 15 16 17 19 19 20 20 21 22 22 23 22 22 21 22 21 21 20 19 19 17 16 16 15 15 15 14 14 14 14 13 13 14 12 15 13 13 13 12 14 12 13 15 16 15 16 16 18 18 19 18 21 nan nan nan nan 20 22 21 21 20 20 20 21
Wind_Direction
296 293 294 292 294 291 293 294 295 296 297 301 303 306 306 309 313 317 319 316 312 313 314 317 320 321 322 325 324 322 321 321 319 317 316 317 318 316 317 319 319 316 312 311 309 307 306 303 301 301 298 295 294 297 299 303 301 305 304 302 292 279 264 257 266 264 262 268 266 265 270 270 266 266 271 268 258 251 244 244 253 249 252 248 246
297 292 289 293 290 287 286 285 289 294 292 298 304 306 306 307 312 316 318 317 312 311 312 314 316 317 320 325 325 321 321 320 318 317 317 317 318 322 323 324 321 316 312 312 309 306 305 305 304 300 300 298 298 300 301 302 306 nan nan nan 302 270 268 273 270 269 275 280 278 271 267 261 262 264 261 256 251 243 242 239 236 249 253 243 243
289 287 285 289 286 283 285 286 288 292 296 297 300 303 304 307 310 313 316 317 313 311 310 311 313 317 322 325 323 321 320 317 315 314 316 320 323 324 325 324 319 316 313 311 309 307 307 306 304 305 305 303 301 304 306 307 307 312 nan 311 293 285 271 275 278 279 282 289 283 280 278 271 263 255 255 256 249 245 243 241 242 244 246 243 248
288 284 282 284 282 282 286 286 287 291 294 297 298 300 303 305 309 311 314 316 313 310 309 310 313 317 321 323 322 320 319 314 312 313 317 320 324 326 325 322 320 315 315 311 309 309 310 310 309 308 307 305 305 307 309 310 313 315 317 315 310 293 277 272 278 285 313 308 308 309 302 289 277 263 256 254 250 247 244 246 248 246 248 249 248
283 283 281 283 287 283 284 285 287 290 293 296 297 298 301 304 308 310 312 314 312 309 308 310 312 317 320 323 322 320 317 313 310 312 315 319 323 327 326 325 322 319 315 311 310 311 311 308 308 308 309 310 309 309 311 314 316 319 319 322 311 296 282 273 280 324 257 20 358 324 298 298 289 275 259 250 248 245 244 248 249 254 256 254 249
281 280 281 284 286 288 283 285 287 290 293 294 295 296 299 302 306 308 309 312 310 308 308 309 312 316 321 323 322 319 316 313 313 316 319 320 324 326 326 324 321 320 314 312 311 313 314 310 308 308 308 311 311 309 310 318 319 317 316 315 313 301 287 279 277 324 39 49 42 307 290 289 286 274 252 254 253 249 248 247 246 250 259 264 264
282 279 283 284 284 289 283 286 288 290 291 291 291 293 297 301 305 305 306 309 309 308 307 310 313 316 322 323 321 317 315 315 317 318 317 317 320 325 322 323 322 319 314 313 313 314 314 313 310 310 311 313 316 312 311 316 322 319 320 317 313 304 293 281 276 106 99 79 286 294 302 300 295 283 265 259 262 261 259 250 245 249 250 249 242
280 279 281 281 282 286 284 286 288 289 289 290 293 294 297 301 302 303 304 307 307 305 306 309 313 317 322 322 320 316 314 313 307 304 308 315 322 319 321 324 323 318 315 313 310 311 313 311 308 309 312 313 317 322 318 316 323 326 325 325 319 313 301 301 282 97 94 315 269 267 295 293 296 296 263 258 260 265 266 263 256 249 244 244 256
279 280 278 277 281 287 283 284 286 288 289 292 293 294 298 301 303 304 305 305 304 305 306 308 313 319 321 320 317 314 312 308 300 300 307 312 313 318 321 326 323 316 307 303 307 312 310 308 308 308 311 314 317 321 319 321 323 330 332 332 326 318 317 319 353 43 28 285 280 285 283 297 287 278 262 252 240 237 251 275 277 260 249 250 251
277 273 275 275 280 282 282 282 284 288 291 292 293 297 299 301 302 302 303 302 301 304 306 309 315 320 321 320 317 312 309 305 299 301 302 303 308 314 322 324 320 311 307 310 309 305 305 307 306 308 308 311 316 322 328 331 335 332 337 335 333 323 326 3 41 60 286 291 260 239 211 229 268 264 260 254 248 245 250 243 240 240 253 259 256
275 273 273 276 284 279 280 282 285 288 290 292 296 297 299 300 300 300 300 301 302 304 305 309 316 321 322 317 312 309 307 302 301 300 301 303 304 309 313 317 315 309 310 307 303 302 305 304 305 304 301 307 317 325 331 336 342 342 336 334 334 338 354 18 48 291 283 274 276 277 264 261 267 269 265 260 250 248 247 252 252 255 256 253 254
276 274 274 276 279 280 281 283 285 286 292 294 296 297 298 299 300 300 300 300 301 301 302 307 312 316 315 315 311 308 305 303 302 302 300 303 303 307 311 314 313 310 306 303 299 298 298 297 299 302 300 305 317 321 331 337 339 338 336 333 329 349 22 29 61 296 285 280 284 285 281 275 270 264 259 255 254 252 249 246 253 260 255 251 251
277 277 276 277 283 279 281 283 285 289 290 294 295 296 296 297 296 294 294 294 294 296 298 302 308 312 312 311 310 307 304 301 302 300 300 304 306 309 313 315 312 306 302 298 296 295 292 293 295 297 293 295 307 322 325 331 334 332 331 329 334 340 34 69 1 291 281 284 287 282 277 272 270 273 276 263 251 250 246 247 250 253 252 254 252
279 277 277 280 279 282 279 281 284 287 291 293 293 292 293 291 292 290 288 289 292 293 298 305 307 308 307 308 305 303 301 302 299 300 302 305 307 309 311 314 310 304 299 293 291 289 288 288 288 287 285 289 301 312 318 320 326 329 328 328 331 346 19 42 292 293 287 278 268 274 279 280 279 284 272 268 266 255 254 nan 251 247 247 252 nan
282 281 280 279 280 282 281 280 282 285 288 289 290 290 287 285 285 284 285 284 286 290 299 304 306 306 306 304 301 301 300 299 298 300 302 304 305 307 308 309 305 301 294 286 285 284 280 277 277 276 274 283 294 304 311 316 323 325 327 329 330 356 24 315 317 290 286 287 291 282 276 275 265 259 268 265 266 264 257 250 249 253 nan 254 252
286 284 282 279 282 281 281 281 279 281 283 286 289 287 282 281 281 281 280 279 281 289 295 299 302 304 302 296 295 297 298 296 295 297 300 302 302 304 306 305 299 298 292 279 276 273 273 278 281 281 278 284 293 302 309 315 319 324 325 328 335 354 22 81 296 292 288 277 267 263 263 263 261 267 271 277 267 263 259 254 252 nan nan nan nan
287 287 283 282 285 283 280 282 278 278 281 284 286 283 279 277 276 275 274 276 282 288 291 293 297 299 295 294 293 294 294 293 293 295 300 301 301 300 302 300 295 295 285 269 268 267 271 279 281 282 281 278 286 296 307 311 314 314 320 327 328 332 349 108 295 292 276 270 268 266 266 266 261 270 271 266 267 263 261 256 254 254 255 254 nan
290 289 285 284 283 283 280 281 282 282 281 282 281 277 275 272 270 269 270 275 283 288 291 294 295 293 291 289 290 290 290 291 291 293 295 297 297 298 299 295 291 289 275 255 252 259 269 273 275 282 284 283 283 290 297 303 301 304 312 318 322 311 331 48 290 285 281 274 263 259 258 264 277 274 267 265 271 272 265 nan 259 nan nan 252 251
289 288 286 284 283 282 283 282 284 281 283 277 275 273 271 270 267 268 271 277 284 289 289 290 290 290 289 289 289 290 291 291 290 293 294 294 296 294 293 291 287 285 269 250 243 252 266 272 279 285 290 288 285 288 294 297 299 303 308 315 314 325 334 353 291 288 286 273 267 264 264 267 263 266 268 265 259 262 268 266 262 257 252 252 nan
284 285 284 283 283 284 283 284 283 281 278 275 273 275 271 269 267 268 272 278 283 288 288 290 294 293 293 288 286 289 291 291 293 292 291 293 291 291 288 285 284 280 270 252 245 255 267 277 282 288 297 294 288 288 296 300 300 302 309 312 319 333 333 292 287 280 272 268 266 269 272 275 270 267 265 266 269 266 263 264 264 260 257 255 254
278 283 282 283 285 286 291 287 289 285 278 273 269 270 271 271 269 269 273 277 281 286 290 294 294 290 288 282 280 285 285 285 292 291 292 290 285 286 288 284 282 279 272 259 254 260 268 277 282 284 293 296 290 294 297 305 305 304 308 316 323 330 286 290 288 286 287 283 275 272 276 266 264 265 267 267 267 266 263 261 263 265 264 261 256
281 280 283 284 283 285 290 288 282 280 270 261 257 260 262 268 269 276 279 280 282 286 290 291 291 284 281 284 281 278 281 284 286 291 288 289 288 287 286 286 283 276 270 263 262 263 267 273 278 278 285 297 308 305 305 303 305 305 311 316 326 296 292 286 284 282 279 276 275 274 274 272 270 265 265 266 264 266 265 263 260 259 261 260 262
279 277 275 279 276 274 276 278 273 268 264 255 251 252 260 259 269 275 275 281 282 286 286 290 285 283 283 281 279 278 283 280 285 285 280 283 285 288 283 280 275 271 268 261 261 262 265 267 269 273 278 304 319 311 305 304 304 306 310 317 306 294 290 289 285 280 275 271 271 271 271 271 267 267 265 263 265 266 267 267 267 nan nan nan 264
268 267 269 266 268 265 268 262 260 258 255 247 248 248 254 258 266 272 273 273 277 279 283 285 282 284 280 276 274 277 280 283 283 285 289 288 284 281 279 277 272 268 272 268 269 264 267 267 266 268 284 310 317 311 307 300 299 305 308 306 298 294 297 297 288 283 282 278 272 279 277 275 272 270 265 262 262 263 263 266 270 270 270 271 272
250 245 242 247 252 251 251 257 248 255 258 253 254 254 257 260 266 269 269 272 273 277 280 281 281 280 276 273 276 277 278 281 287 289 285 282 286 286 284 278 271 270 293 277 283 281 285 282 278 270 278 302 307 315 309 295 296 299 298 299 294 297 294 291 287 289 282 277 278 282 277 273 275 272 271 270 268 267 268 270 270 268 270 nan nan
247 240 232 234 239 222 229 237 241 254 253 249 251 254 263 263 265 266 267 270 274 277 278 278 277 274 270 272 275 275 274 276 281 282 280 283 287 282 282 274 269 267 276 278 284 294 288 283 273 254 269 290 291 301 301 285 289 291 293 295 295 296 292 291 290 288 285 282 281 279 277 273 269 270 273 272 271 272 271 270 271 274 nan nan nan
245 239 240 233 225 214 217 230 237 247 256 247 249 256 259 261 263 264 267 272 274 276 276 273 271 272 270 272 272 268 268 273 276 279 280 285 282 278 269 267 268 266 268 271 278 281 272 266 259 256 270 279 279 290 289 281 284 291 292 296 293 292 287 287 289 289 288 284 281 278 271 274 275 275 273 272 273 271 271 272 273 276 277 276 275
257 234 237 231 229 213 215 225 231 237 248 248 253 253 257 259 262 264 268 269 273 275 269 266 267 271 270 268 267 265 266 271 273 274 278 276 273 268 268 267 264 260 262 268 277 273 265 261 260 262 269 270 275 283 283 287 291 292 293 293 291 287 285 281 280 283 280 285 285 278 278 280 279 276 278 278 277 275 275 276 278 275 276 nan nan
248 225 222 228 223 220 225 231 231 238 245 250 251 252 254 257 261 263 267 271 266 270 264 262 265 265 268 271 266 266 266 269 271 272 272 271 268 268 266 262 259 259 262 265 269 270 267 265 263 264 261 260 264 271 274 281 289 291 293 294 296 289 285 281 279 282 286 289 280 276 283 286 283 280 282 282 281 280 278 275 273 274 275 277 nan
279 237 222 220 224 228 242 256 243 238 239 239 241 246 252 255 258 263 262 267 269 267 263 257 255 257 260 269 267 261 267 268 268 268 269 266 265 264 262 259 257 256 259 263 265 266 264 266 268 266 269 271 273 272 277 284 292 291 297 299 297 291 283 282 282 283 287 286 280 276 287 290 285 280 279 282 280 279 277 275 273 272 274 nan nan
294 287 243 226 230 236 251 267 253 239 237 234 238 241 245 248 251 259 261 262 258 261 261 256 257 254 257 264 269 268 264 270 271 270 266 265 264 264 261 260 258 258 260 262 260 255 255 260 261 265 265 263 266 272 274 278 282 294 291 296 294 289 288 282 288 287 291 287 274 280 282 262 262 283 280 274 271 275 277 276 275 273 273 274 276
285 295 286 247 260 261 268 270 249 242 231 235 238 244 246 246 253 260 261 258 257 255 262 257 256 259 261 265 260 260 265 268 270 267 263 265 266 266 261 260 262 262 261 262 259 256 258 260 260 256 258 262 268 270 266 272 272 275 294 290 293 295 292 290 294 293 290 280 270 271 281 281 275 269 288 279 274 273 279 280 278 277 274 273 271
297 307 326 321 316 289 271 270 253 238 238 232 238 244 245 251 253 257 256 254 255 259 259 256 255 258 264 263 259 263 266 269 266 263 261 262 265 266 263 263 265 264 260 260 261 259 262 267 266 266 269 269 267 269 273 274 278 278 275 288 298 299 294 308 293 298 270 258 272 275 277 285 284 277 273 283 286 284 282 284 284 282 278 274 272
292 290 305 315 318 305 275 268 272 259 263 259 251 252 251 253 251 252 249 249 251 255 252 254 255 256 264 269 266 268 269 265 263 261 259 261 263 259 261 265 264 266 264 262 261 260 263 263 269 273 269 271 271 275 281 280 278 277 276 276 285 277 291 287 281 258 260 271 278 278 286 283 284 284 286 275 288 287 284 284 285 283 279 277 277
299 287 287 283 290 297 272 264 271 266 273 265 257 259 260 261 258 252 247 247 250 249 246 248 246 251 255 263 268 266 267 263 260 262 261 260 257 253 259 264 265 264 260 255 254 261 262 267 269 271 270 270 277 276 275 273 270 269 269 270 279 289 298 289 274 268 274 286 290 292 286 287 287 288 292 289 287 287 282 284 281 276 276 275 276
310 301 296 289 282 282 279 286 307 308 274 273 269 265 269 265 259 259 256 259 256 250 247 248 253 255 265 267 265 263 263 261 262 262 259 256 251 255 260 263 267 260 253 254 257 261 257 257 257 260 269 276 283 283 276 274 271 271 276 286 290 298 306 315 272 280 275 285 293 290 290 283 288 287 286 286 283 289 285 277 259 267 269 269 267
321 313 309 301 295 295 293 295 304 304 295 291 286 272 268 266 261 262 263 255 255 250 255 253 251 256 258 260 264 264 263 263 263 261 255 256 253 258 262 268 265 255 250 253 257 253 257 258 256 253 256 272 276 272 271 274 278 279 280 282 289 298 311 275 297 277 285 284 289 299 296 290 284 288 304 304 302 296 304 283 280 272 272 270 271
324 323 318 310 304 304 303 294 294 298 295 300 295 281 260 294 280 260 260 255 259 259 256 255 251 256 258 262 266 268 268 264 262 255 254 256 260 263 265 268 259 248 248 255 255 252 254 255 256 256 264 263 267 271 273 271 268 269 272 276 283 292 293 306 319 302 292 292 290 292 292 287 296 300 298 310 308 298 300 300 287 286 280 289 291
325 329 330 322 317 312 309 307 307 291 287 291 284 268 271 287 275 272 257 256 255 255 252 243 257 260 261 265 270 259 263 258 251 268 263 262 264 265 265 265 253 248 251 255 254 252 250 251 259 262 256 256 259 264 265 265 267 268 271 276 278 276 282 300 325 319 307 287 285 288 300 302 292 292 301 301 311 323 315 299 307 300 310 303 308
323 327 333 325 321 317 314 305 294 280 279 281 275 259 259 263 269 257 257 252 249 248 250 256 252 258 265 267 258 260 254 270 275 272 269 266 264 262 258 253 246 246 249 249 250 250 252 255 261 266 266 259 256 260 262 265 266 266 268 268 269 275 287 301 309 318 295 276 284 294 296 302 305 296 292 301 319 311 308 318 322 335 324 306 304
322 330 336 330 311 308 300 286 275 274 269 265 253 249 258 259 258 253 253 258 251 247 253 255 255 257 255 268 278 270 274 271 273 274 271 269 263 256 250 243 241 243 242 246 246 247 248 253 258 262 266 265 262 262 264 266 270 266 268 267 268 272 279 293 301 303 295 289 269 280 273 295 300 304 292 290 315 280 304 294 302 306 295 301 303
327 330 337 328 306 292 275 253 245 254 255 254 248 250 254 264 260 257 259 262 260 259 260 259 257 262 263 258 259 262 270 273 273 272 271 268 260 251 243 240 241 244 242 245 246 248 252 256 258 259 257 261 261 265 264 270 270 268 276 276 274 274 276 289 301 284 277 278 287 274 291 291 289 284 289 300 289 310 308 292 287 286 288 304 313
313 322 314 312 303 293 279 252 234 241 248 252 249 245 248 240 246 247 253 246 250 248 249 252 258 263 265 263 262 265 269 271 273 273 267 263 255 247 241 239 243 245 247 251 254 253 254 259 261 257 260 256 258 261 267 237 251 267 267 278 284 293 274 269 260 281 289 279 279 288 289 294 293 292 286 293 301 289 291 298 294 288 285 275 276
284 298 291 284 265 259 267 253 249 250 252 254 248 249 249 239 235 241 240 239 244 247 246 251 255 261 266 262 263 264 269 270 272 270 265 259 251 245 241 242 244 247 246 250 253 255 257 259 260 260 259 263 261 265 256 250 241 269 276 260 275 283 286 291 279 261 249 264 279 282 288 287 287 286 291 291 284 286 286 281 283 288 287 279 282
266 260 259 267 251 250 255 261 256 252 245 248 260 255 254 233 230 246 241 241 244 246 251 253 258 263 263 266 267 268 271 268 266 265 260 256 250 244 242 245 245 244 242 246 250 249 256 259 266 265 266 258 264 262 260 250 250 239 242 266 269 260 262 271 274 266 276 279 273 271 271 278 278 278 281 280 278 280 281 283 281 281 284 286 287
250 239 231 242 244 249 247 253 262 272 256 264 266 259 251 252 251 250 253 252 260 262 264 268 270 269 267 265 269 270 270 266 262 260 253 249 249 246 245 247 248 245 242 239 242 249 253 256 265 266 270 263 261 267 266 261 254 257 243 243 236 235 245 272 278 263 260 256 260 258 264 265 270 274 274 278 282 279 278 280 280 277 279 282 285
243 238 229 228 234 242 244 244 249 252 249 253 262 252 260 258 260 259 258 260 263 263 267 268 270 268 265 269 267 266 266 263 258 256 252 251 250 249 247 246 245 246 246 244 247 250 256 257 261 264 265 269 264 265 266 269 265 260 257 249 243 247 252 280 276 280 277 262 263 263 259 264 268 273 275 274 276 275 272 274 276 276 277 283 290
243 238 230 228 231 237 238 238 237 241 244 247 251 252 249 255 262 256 250 258 261 263 267 268 268 267 268 270 264 260 260 259 258 256 254 253 252 251 247 244 241 244 247 245 248 254 256 260 256 257 255 255 263 258 268 266 267 267 263 262 266 261 267 256 259 285 278 277 272 267 275 272 267 263 263 266 267 269 275 279 284 285 282 283 286
239 237 230 231 232 233 232 231 234 235 239 253 257 265 260 264 254 255 259 251 257 255 255 257 263 266 271 265 259 259 258 258 258 258 257 255 253 252 249 247 246 245 247 251 253 258 259 259 261 256 253 256 255 250 249 265 270 270 273 272 272 272 272 266 262 263 272 284 280 285 280 276 273 267 267 267 269 nan nan nan nan nan 283 281 282
227 231 237 238 238 236 235 232 233 231 235 242 242 247 248 252 263 257 257 253 251 252 253 255 257 264 265 262 260 259 260 260 261 262 258 256 253 252 249 247 244 243 240 248 252 256 251 252 253 251 253 252 255 260 260 252 250 245 269 266 276 273 270 273 275 276 274 276 281 288 289 289 283 nan 273 nan 280 282 283 283 283 nan 281 285 282
259 251 243 247 249 247 244 240 235 231 231 236 239 240 242 248 247 252 256 257 258 258 257 259 259 261 261 262 262 262 262 262 263 261 257 255 250 249 247 248 246 244 243 248 250 247 251 247 247 251 255 256 255 260 261 277 273 273 274 266 247 260 275 278 281 280 280 279 280 284 283 282 282 nan nan nan nan 284 283 282 282 283 281 280 280